Year,Month,Day,Hour,Minute,Value (Times are PST for temperature in C)
2015,04,10,00,00,7.10
2015,04,10,00,01,7.10
2015,04,10,00,02,7.10
2015,04,10,00,03,7.00
2015,04,10,00,04,7.00
2015,04,10,00,05,7.00
2015,04,10,00,06,6.90
2015,04,10,00,07,6.90
2015,04,10,00,08,6.90
2015,04,10,00,09,6.90
2015,04,10,00,10,6.90
2015,04,10,00,11,6.90
2015,04,10,00,12,6.90
2015,04,10,00,13,6.90
2015,04,10,00,14,6.90
2015,04,10,00,15,6.90
2015,04,10,00,16,6.90
2015,04,10,00,17,6.90
2015,04,10,00,18,6.90
2015,04,10,00,19,6.90
2015,04,10,00,20,6.90
2015,04,10,00,21,6.90
2015,04,10,00,22,6.90
2015,04,10,00,23,6.90
2015,04,10,00,24,6.90
2015,04,10,00,25,6.90
2015,04,10,00,26,6.90
2015,04,10,00,27,6.90
2015,04,10,00,28,6.90
2015,04,10,00,29,7.00
2015,04,10,00,30,7.00
2015,04,10,00,31,7.00
2015,04,10,00,32,7.00
2015,04,10,00,33,7.00
2015,04,10,00,34,7.00
2015,04,10,00,35,7.10
2015,04,10,00,36,7.10
2015,04,10,00,37,7.10
2015,04,10,00,38,7.10
2015,04,10,00,39,7.10
2015,04,10,00,40,7.10
2015,04,10,00,41,7.10
2015,04,10,00,42,7.10
2015,04,10,00,43,7.10
2015,04,10,00,44,7.10
2015,04,10,00,45,7.10
2015,04,10,00,46,7.10
2015,04,10,00,47,7.10
2015,04,10,00,48,7.10
2015,04,10,00,49,7.10
2015,04,10,00,50,7.10
2015,04,10,00,51,7.10
2015,04,10,00,52,7.10
2015,04,10,00,53,7.10
2015,04,10,00,54,7.10
2015,04,10,00,55,7.10
2015,04,10,00,56,7.10
2015,04,10,00,57,7.10
2015,04,10,00,58,7.00
2015,04,10,00,59,7.00
2015,04,10,01,00,7.00
2015,04,10,01,01,7.00
2015,04,10,01,02,7.00
2015,04,10,01,03,7.00
2015,04,10,01,04,7.00
2015,04,10,01,05,7.00
2015,04,10,01,06,7.00
2015,04,10,01,07,6.90
2015,04,10,01,08,6.90
2015,04,10,01,09,6.90
2015,04,10,01,10,6.90
2015,04,10,01,11,6.90
2015,04,10,01,12,6.90
2015,04,10,01,13,6.80
2015,04,10,01,14,6.80
2015,04,10,01,15,6.80
2015,04,10,01,16,6.80
2015,04,10,01,17,6.80
2015,04,10,01,18,6.80
2015,04,10,01,19,6.80
2015,04,10,01,20,6.80
2015,04,10,01,21,6.70
2015,04,10,01,22,6.70
2015,04,10,01,23,6.70
2015,04,10,01,24,6.70
2015,04,10,01,25,6.70
2015,04,10,01,26,6.60
2015,04,10,01,27,6.60
2015,04,10,01,28,6.60
2015,04,10,01,29,6.60
2015,04,10,01,30,6.60
2015,04,10,01,31,6.50
2015,04,10,01,32,6.50
2015,04,10,01,33,6.50
2015,04,10,01,34,6.50
2015,04,10,01,35,6.50
2015,04,10,01,36,6.50
2015,04,10,01,37,6.50
2015,04,10,01,38,6.50
2015,04,10,01,39,6.50
2015,04,10,01,40,6.50
2015,04,10,01,41,6.50
2015,04,10,01,42,6.50
2015,04,10,01,43,6.50
2015,04,10,01,44,6.50
2015,04,10,01,45,6.50
2015,04,10,01,46,6.40
2015,04,10,01,47,6.40
2015,04,10,01,48,6.40
2015,04,10,01,49,6.40
2015,04,10,01,50,6.40
2015,04,10,01,51,6.40
2015,04,10,01,52,6.40
2015,04,10,01,53,6.40
2015,04,10,01,54,6.40
2015,04,10,01,55,6.30
2015,04,10,01,56,6.30
2015,04,10,01,57,6.30
2015,04,10,01,58,6.30
2015,04,10,01,59,6.30
2015,04,10,02,00,6.30
2015,04,10,02,01,6.30
2015,04,10,02,02,6.30
2015,04,10,02,03,6.30
2015,04,10,02,04,6.30
2015,04,10,02,05,6.30
2015,04,10,02,06,6.30
2015,04,10,02,07,6.30
2015,04,10,02,08,6.30
2015,04,10,02,09,6.20
2015,04,10,02,10,6.20
2015,04,10,02,11,6.20
2015,04,10,02,12,6.20
2015,04,10,02,13,6.20
2015,04,10,02,14,6.10
2015,04,10,02,15,6.10
2015,04,10,02,16,6.10
2015,04,10,02,17,6.10
2015,04,10,02,18,6.10
2015,04,10,02,19,6.00
2015,04,10,02,20,6.00
2015,04,10,02,21,6.00
2015,04,10,02,22,6.00
2015,04,10,02,23,6.00
2015,04,10,02,24,5.90
2015,04,10,02,25,5.90
2015,04,10,02,26,5.90
2015,04,10,02,27,5.90
2015,04,10,02,28,5.90
2015,04,10,02,29,5.90
2015,04,10,02,30,5.80
2015,04,10,02,31,5.80
2015,04,10,02,32,5.80
2015,04,10,02,33,5.80
2015,04,10,02,34,5.80
2015,04,10,02,35,5.80
2015,04,10,02,36,5.80
2015,04,10,02,37,5.80
2015,04,10,02,38,5.80
2015,04,10,02,39,5.70
2015,04,10,02,40,5.70
2015,04,10,02,41,5.70
2015,04,10,02,42,5.70
2015,04,10,02,43,5.70
2015,04,10,02,44,5.70
2015,04,10,02,45,5.70
2015,04,10,02,46,5.70
2015,04,10,02,47,5.70
2015,04,10,02,48,5.70
2015,04,10,02,49,5.70
2015,04,10,02,50,5.70
2015,04,10,02,51,5.60
2015,04,10,02,52,5.60
2015,04,10,02,53,5.60
2015,04,10,02,54,5.60
2015,04,10,02,55,5.60
2015,04,10,02,56,5.60
2015,04,10,02,57,5.60
2015,04,10,02,58,5.60
2015,04,10,02,59,5.60
2015,04,10,03,00,5.60
2015,04,10,03,01,5.60
2015,04,10,03,02,5.60
2015,04,10,03,06,5.60
2015,04,10,03,07,5.60
2015,04,10,03,08,5.60
2015,04,10,03,09,5.60
2015,04,10,03,10,5.50
2015,04,10,03,11,5.50
2015,04,10,03,12,5.50
2015,04,10,03,13,5.50
2015,04,10,03,14,5.50
2015,04,10,03,15,5.50
2015,04,10,03,16,5.50
2015,04,10,03,17,5.50
2015,04,10,03,18,5.50
2015,04,10,03,19,5.50
2015,04,10,03,20,5.50
2015,04,10,03,21,5.50
2015,04,10,03,22,5.50
2015,04,10,03,23,5.50
2015,04,10,03,24,5.50
2015,04,10,03,25,5.40
2015,04,10,03,26,5.40
2015,04,10,03,27,5.40
2015,04,10,03,28,5.40
2015,04,10,03,29,5.40
2015,04,10,03,30,5.40
2015,04,10,03,31,5.40
2015,04,10,03,32,5.40
2015,04,10,03,33,5.40
2015,04,10,03,34,5.40
2015,04,10,03,35,5.40
2015,04,10,03,36,5.40
2015,04,10,03,37,5.30
2015,04,10,03,38,5.30
2015,04,10,03,39,5.30
2015,04,10,03,40,5.30
2015,04,10,03,41,5.30
2015,04,10,03,42,5.30
2015,04,10,03,43,5.30
2015,04,10,03,44,5.30
2015,04,10,03,45,5.20
2015,04,10,03,46,5.20
2015,04,10,03,47,5.20
2015,04,10,03,48,5.20
2015,04,10,03,49,5.20
2015,04,10,03,50,5.20
2015,04,10,03,51,5.10
2015,04,10,03,52,5.10
2015,04,10,03,53,5.10
2015,04,10,03,54,5.10
2015,04,10,03,55,5.10
2015,04,10,03,56,5.10
2015,04,10,03,57,5.10
2015,04,10,03,58,5.00
2015,04,10,03,59,5.00
2015,04,10,04,00,5.00
2015,04,10,04,01,5.00
2015,04,10,04,02,5.00
2015,04,10,04,03,5.00
2015,04,10,04,04,4.90
2015,04,10,04,05,4.90
2015,04,10,04,06,4.90
2015,04,10,04,07,4.90
2015,04,10,04,08,4.90
2015,04,10,04,09,4.90
2015,04,10,04,10,4.90
2015,04,10,04,11,4.80
2015,04,10,04,12,4.80
2015,04,10,04,13,4.80
2015,04,10,04,14,4.80
2015,04,10,04,15,4.80
2015,04,10,04,16,4.80
2015,04,10,04,17,4.80
2015,04,10,04,18,4.80
2015,04,10,04,19,4.80
2015,04,10,04,20,4.80
2015,04,10,04,21,4.80
2015,04,10,04,22,4.80
2015,04,10,04,23,4.80
2015,04,10,04,24,4.80
2015,04,10,04,25,4.80
2015,04,10,04,26,4.80
2015,04,10,04,27,4.80
2015,04,10,04,28,4.80
2015,04,10,04,29,4.80
2015,04,10,04,30,4.80
2015,04,10,04,31,4.80
2015,04,10,04,32,4.70
2015,04,10,04,33,4.70
2015,04,10,04,34,4.70
2015,04,10,04,35,4.70
2015,04,10,04,36,4.70
2015,04,10,04,37,4.70
2015,04,10,04,38,4.70
2015,04,10,04,39,4.70
2015,04,10,04,40,4.70
2015,04,10,04,41,4.70
2015,04,10,04,42,4.70
2015,04,10,04,43,4.70
2015,04,10,04,44,4.70
2015,04,10,04,45,4.70
2015,04,10,04,46,4.70
2015,04,10,04,47,4.70
2015,04,10,04,48,4.70
2015,04,10,04,49,4.70
2015,04,10,04,50,4.70
2015,04,10,04,51,4.70
2015,04,10,04,52,4.70
2015,04,10,04,53,4.70
2015,04,10,04,54,4.60
2015,04,10,04,55,4.60
2015,04,10,04,56,4.60
2015,04,10,04,57,4.60
2015,04,10,04,58,4.60
2015,04,10,04,59,4.60
2015,04,10,05,00,4.60
2015,04,10,05,01,4.60
2015,04,10,05,02,4.50
2015,04,10,05,03,4.50
2015,04,10,05,04,4.50
2015,04,10,05,05,4.50
2015,04,10,05,06,4.50
2015,04,10,05,07,4.50
2015,04,10,05,08,4.40
2015,04,10,05,09,4.40
2015,04,10,05,10,4.40
2015,04,10,05,11,4.40
2015,04,10,05,12,4.40
2015,04,10,05,13,4.40
2015,04,10,05,14,4.30
2015,04,10,05,15,4.30
2015,04,10,05,16,4.30
2015,04,10,05,17,4.30
2015,04,10,05,18,4.30
2015,04,10,05,19,4.30
2015,04,10,05,20,4.30
2015,04,10,05,21,4.30
2015,04,10,05,22,4.30
2015,04,10,05,23,4.30
2015,04,10,05,24,4.30
2015,04,10,05,25,4.30
2015,04,10,05,26,4.30
2015,04,10,05,27,4.30
2015,04,10,05,28,4.30
2015,04,10,05,29,4.30
2015,04,10,05,30,4.30
2015,04,10,05,31,4.30
2015,04,10,05,32,4.30
2015,04,10,05,33,4.30
2015,04,10,05,34,4.30
2015,04,10,05,35,4.30
2015,04,10,05,36,4.30
2015,04,10,05,37,4.30
2015,04,10,05,38,4.30
2015,04,10,05,39,4.30
2015,04,10,05,40,4.30
2015,04,10,05,41,4.30
2015,04,10,05,42,4.30
2015,04,10,05,43,4.30
2015,04,10,05,44,4.30
2015,04,10,05,45,4.30
2015,04,10,05,46,4.30
2015,04,10,05,47,4.30
2015,04,10,05,48,4.20
2015,04,10,05,49,4.20
2015,04,10,05,50,4.20
2015,04,10,05,51,4.20
2015,04,10,05,52,4.20
2015,04,10,05,53,4.20
2015,04,10,05,54,4.20
2015,04,10,05,55,4.20
2015,04,10,05,56,4.20
2015,04,10,05,57,4.20
2015,04,10,05,58,4.20
2015,04,10,05,59,4.20
2015,04,10,06,00,4.20
2015,04,10,06,01,4.20
2015,04,10,06,02,4.20
2015,04,10,06,03,4.20
2015,04,10,06,04,4.20
2015,04,10,06,05,4.20
2015,04,10,06,06,4.20
2015,04,10,06,07,4.20
2015,04,10,06,08,4.20
2015,04,10,06,09,4.20
2015,04,10,06,10,4.20
2015,04,10,06,11,4.20
2015,04,10,06,12,4.30
2015,04,10,06,13,4.30
2015,04,10,06,14,4.30
2015,04,10,06,15,4.30
2015,04,10,06,16,4.30
2015,04,10,06,17,4.30
2015,04,10,06,18,4.30
2015,04,10,06,19,4.30
2015,04,10,06,20,4.30
2015,04,10,06,21,4.30
2015,04,10,06,22,4.30
2015,04,10,06,23,4.30
2015,04,10,06,24,4.30
2015,04,10,06,25,4.30
2015,04,10,06,26,4.30
2015,04,10,06,27,4.30
2015,04,10,06,28,4.30
2015,04,10,06,29,4.30
2015,04,10,06,30,4.30
2015,04,10,06,31,4.30
2015,04,10,06,32,4.30
2015,04,10,06,33,4.30
2015,04,10,06,34,4.30
2015,04,10,06,35,4.30
2015,04,10,06,36,4.30
2015,04,10,06,37,4.30
2015,04,10,06,38,4.30
2015,04,10,06,39,4.30
2015,04,10,06,40,4.30
2015,04,10,06,41,4.30
2015,04,10,06,42,4.30
2015,04,10,06,43,4.30
2015,04,10,06,44,4.40
2015,04,10,06,45,4.40
2015,04,10,06,46,4.40
2015,04,10,06,47,4.40
2015,04,10,06,48,4.40
2015,04,10,06,49,4.40
2015,04,10,06,50,4.40
2015,04,10,06,51,4.40
2015,04,10,06,52,4.40
2015,04,10,06,53,4.40
2015,04,10,06,54,4.40
2015,04,10,06,55,4.30
2015,04,10,06,56,4.30
2015,04,10,06,57,4.30
2015,04,10,06,58,4.30
2015,04,10,06,59,4.30
2015,04,10,07,00,4.30
2015,04,10,07,01,4.30
2015,04,10,07,02,4.30
2015,04,10,07,03,4.30
2015,04,10,07,04,4.30
2015,04,10,07,05,4.40
2015,04,10,07,06,4.40
2015,04,10,07,07,4.40
2015,04,10,07,08,4.40
2015,04,10,07,09,4.40
2015,04,10,07,10,4.40
2015,04,10,07,11,4.40
2015,04,10,07,12,4.50
2015,04,10,07,13,4.50
2015,04,10,07,14,4.50
2015,04,10,07,15,4.50
2015,04,10,07,16,4.60
2015,04,10,07,17,4.60
2015,04,10,07,18,4.60
2015,04,10,07,19,4.60
2015,04,10,07,20,4.60
2015,04,10,07,21,4.60
2015,04,10,07,22,4.60
2015,04,10,07,23,4.70
2015,04,10,07,24,4.70
2015,04,10,07,25,4.70
2015,04,10,07,26,4.70
2015,04,10,07,27,4.70
2015,04,10,07,28,4.80
2015,04,10,07,29,4.80
2015,04,10,07,30,4.80
2015,04,10,07,31,4.80
2015,04,10,07,32,4.80
2015,04,10,07,33,4.80
2015,04,10,07,34,4.80
2015,04,10,07,35,4.80
2015,04,10,07,36,4.80
2015,04,10,07,37,4.80
2015,04,10,07,38,4.80
2015,04,10,07,39,4.80
2015,04,10,07,40,4.80
2015,04,10,07,41,4.90
2015,04,10,07,42,4.90
2015,04,10,07,43,4.90
2015,04,10,07,44,4.90
2015,04,10,07,45,4.90
2015,04,10,07,46,4.90
2015,04,10,07,47,4.90
2015,04,10,07,48,4.90
2015,04,10,07,49,4.90
2015,04,10,07,50,4.90
2015,04,10,07,51,4.90
2015,04,10,07,52,4.90
2015,04,10,07,53,4.90
2015,04,10,07,54,4.90
2015,04,10,07,55,5.00
2015,04,10,07,56,5.00
2015,04,10,07,57,5.00
2015,04,10,07,58,5.00
2015,04,10,07,59,5.10
2015,04,10,08,00,5.10
2015,04,10,08,01,5.10
2015,04,10,08,02,5.10
2015,04,10,08,03,5.10
2015,04,10,08,04,5.10
2015,04,10,08,05,5.10
2015,04,10,08,06,5.10
2015,04,10,08,07,5.10
2015,04,10,08,08,5.10
2015,04,10,08,09,5.20
2015,04,10,08,10,5.20
2015,04,10,08,11,5.20
2015,04,10,08,12,5.20
2015,04,10,08,13,5.20
2015,04,10,08,14,5.30
2015,04,10,08,15,5.30
2015,04,10,08,16,5.30
2015,04,10,08,17,5.30
2015,04,10,08,18,5.30
2015,04,10,08,19,5.30
2015,04,10,08,20,5.40
2015,04,10,08,21,5.40
2015,04,10,08,22,5.40
2015,04,10,08,23,5.40
2015,04,10,08,24,5.40
2015,04,10,08,25,5.40
2015,04,10,08,26,5.40
2015,04,10,08,27,5.40
2015,04,10,08,28,5.50
2015,04,10,08,29,5.50
2015,04,10,08,30,5.50
2015,04,10,08,31,5.50
2015,04,10,08,32,5.50
2015,04,10,08,33,5.60
2015,04,10,08,34,5.60
2015,04,10,08,35,5.60
2015,04,10,08,36,5.60
2015,04,10,08,37,5.60
2015,04,10,08,38,5.60
2015,04,10,08,39,5.70
2015,04,10,08,40,5.70
2015,04,10,08,41,5.70
2015,04,10,08,42,5.70
2015,04,10,08,43,5.70
2015,04,10,08,44,5.80
2015,04,10,08,45,5.80
2015,04,10,08,46,5.80
2015,04,10,08,47,5.80
2015,04,10,08,48,5.80
2015,04,10,08,49,5.90
2015,04,10,08,50,5.90
2015,04,10,08,51,5.90
2015,04,10,08,52,5.90
2015,04,10,08,53,6.00
2015,04,10,08,54,6.00
2015,04,10,08,55,6.00
2015,04,10,08,56,6.10
2015,04,10,08,57,6.10
2015,04,10,08,58,6.10
2015,04,10,08,59,6.20
2015,04,10,09,00,6.20
2015,04,10,09,01,6.30
2015,04,10,09,02,6.30
2015,04,10,09,03,6.30
2015,04,10,09,04,6.40
2015,04,10,09,05,6.40
2015,04,10,09,06,6.40
2015,04,10,09,07,6.50
2015,04,10,09,08,6.60
2015,04,10,09,09,6.70
2015,04,10,09,10,6.70
2015,04,10,09,11,6.80
2015,04,10,09,12,6.80
2015,04,10,09,13,6.90
2015,04,10,09,14,6.90
2015,04,10,09,15,7.00
2015,04,10,09,16,7.10
2015,04,10,09,17,7.10
2015,04,10,09,18,7.20
2015,04,10,09,19,7.20
2015,04,10,09,20,7.30
2015,04,10,09,21,7.30
2015,04,10,09,22,7.40
2015,04,10,09,23,7.40
2015,04,10,09,24,7.50
2015,04,10,09,25,7.50
2015,04,10,09,26,7.60
2015,04,10,09,27,7.60
2015,04,10,09,28,7.70
2015,04,10,09,29,7.80
2015,04,10,09,30,7.80
2015,04,10,09,31,7.80
2015,04,10,09,32,7.90
2015,04,10,09,33,7.90
2015,04,10,09,34,7.90
2015,04,10,09,35,7.90
2015,04,10,09,36,8.00
2015,04,10,09,37,8.00
2015,04,10,09,38,8.10
2015,04,10,09,39,8.20
2015,04,10,09,40,8.20
2015,04,10,09,41,8.30
2015,04,10,09,42,8.30
2015,04,10,09,43,8.40
2015,04,10,09,44,8.40
2015,04,10,09,45,8.50
2015,04,10,09,46,8.50
2015,04,10,09,47,8.60
2015,04,10,09,48,8.60
2015,04,10,09,49,8.70
2015,04,10,09,50,8.70
2015,04,10,09,51,8.80
2015,04,10,09,52,8.90
2015,04,10,09,53,9.00
2015,04,10,09,54,9.00
2015,04,10,09,55,9.10
2015,04,10,09,56,9.20
2015,04,10,09,57,9.30
2015,04,10,09,58,9.30
2015,04,10,09,59,9.30
2015,04,10,10,00,9.40
2015,04,10,10,01,9.40
2015,04,10,10,02,9.50
2015,04,10,10,03,9.60
2015,04,10,10,04,9.70
2015,04,10,10,05,9.70
2015,04,10,10,06,9.80
2015,04,10,10,07,9.80
2015,04,10,10,08,9.90
2015,04,10,10,09,9.90
2015,04,10,10,10,10.00
2015,04,10,10,11,10.00
2015,04,10,10,12,10.00
2015,04,10,10,13,10.10
2015,04,10,10,14,10.20
2015,04,10,10,15,10.20
2015,04,10,10,16,10.20
2015,04,10,10,17,10.20
2015,04,10,10,18,10.20
2015,04,10,10,19,10.20
2015,04,10,10,20,10.20
2015,04,10,10,21,10.20
2015,04,10,10,22,10.20
2015,04,10,10,23,10.20
2015,04,10,10,24,10.20
2015,04,10,10,25,10.20
2015,04,10,10,26,10.20
2015,04,10,10,27,10.20
2015,04,10,10,28,10.20
2015,04,10,10,29,10.20
2015,04,10,10,30,10.20
2015,04,10,10,31,10.20
2015,04,10,10,32,10.10
2015,04,10,10,33,10.10
2015,04,10,10,34,10.10
2015,04,10,10,35,10.00
2015,04,10,10,36,10.00
2015,04,10,10,37,10.00
2015,04,10,10,38,10.00
2015,04,10,10,39,9.90
2015,04,10,10,40,9.90
2015,04,10,10,41,9.90
2015,04,10,10,42,9.80
2015,04,10,10,43,9.80
2015,04,10,10,44,9.80
2015,04,10,10,45,9.80
2015,04,10,10,46,9.70
2015,04,10,10,47,9.70
2015,04,10,10,48,9.70
2015,04,10,10,49,9.60
2015,04,10,10,50,9.60
2015,04,10,10,51,9.60
2015,04,10,10,52,9.60
2015,04,10,10,53,9.60
2015,04,10,10,54,9.60
2015,04,10,10,55,9.50
2015,04,10,10,56,9.50
2015,04,10,10,57,9.40
2015,04,10,10,58,9.40
2015,04,10,10,59,9.30
2015,04,10,11,00,9.30
2015,04,10,11,01,9.30
2015,04,10,11,02,9.20
2015,04,10,11,03,9.20
2015,04,10,11,04,9.10
2015,04,10,11,05,9.10
2015,04,10,11,06,9.10
2015,04,10,11,07,9.10
2015,04,10,11,08,9.10
2015,04,10,11,09,9.00
2015,04,10,11,10,9.00
2015,04,10,11,11,9.00
2015,04,10,11,12,9.00
2015,04,10,11,13,8.90
2015,04,10,11,14,8.90
2015,04,10,11,15,8.90
2015,04,10,11,16,8.90
2015,04,10,11,17,8.80
2015,04,10,11,18,8.80
2015,04,10,11,19,8.80
2015,04,10,11,20,8.70
2015,04,10,11,21,8.70
2015,04,10,11,22,8.70
2015,04,10,11,23,8.70
2015,04,10,11,24,8.70
2015,04,10,11,25,8.60
2015,04,10,11,26,8.60
2015,04,10,11,27,8.60
2015,04,10,11,28,8.60
2015,04,10,11,29,8.50
2015,04,10,11,30,8.50
2015,04,10,11,31,8.50
2015,04,10,11,32,8.50
2015,04,10,11,33,8.50
2015,04,10,11,34,8.50
2015,04,10,11,35,8.50
2015,04,10,11,36,8.40
2015,04,10,11,37,8.40
2015,04,10,11,38,8.40
2015,04,10,11,39,8.40
2015,04,10,11,40,8.40
2015,04,10,11,41,8.40
2015,04,10,11,42,8.40
2015,04,10,11,43,8.40
2015,04,10,11,44,8.40
2015,04,10,11,45,8.40
2015,04,10,11,46,8.30
2015,04,10,11,47,8.30
2015,04,10,11,48,8.30
2015,04,10,11,49,8.20
2015,04,10,11,50,8.20
2015,04,10,11,51,8.20
2015,04,10,11,52,8.20
2015,04,10,11,53,8.10
2015,04,10,11,54,8.10
2015,04,10,11,55,8.10
2015,04,10,11,56,8.10
2015,04,10,11,57,8.10
2015,04,10,11,58,8.10
2015,04,10,11,59,8.10
2015,04,10,12,00,8.10
2015,04,10,12,01,8.10
2015,04,10,12,02,8.10
2015,04,10,12,03,8.10
2015,04,10,12,04,8.10
2015,04,10,12,05,8.10
2015,04,10,12,06,8.10
2015,04,10,12,07,8.10
2015,04,10,12,08,8.10
2015,04,10,12,09,8.10
2015,04,10,12,10,8.10
2015,04,10,12,11,8.10
2015,04,10,12,12,8.00
2015,04,10,12,13,8.00
2015,04,10,12,14,8.00
2015,04,10,12,15,8.10
2015,04,10,12,16,8.10
2015,04,10,12,17,8.10
2015,04,10,12,18,8.00
2015,04,10,12,19,8.00
2015,04,10,12,20,8.00
2015,04,10,12,21,8.00
2015,04,10,12,22,7.90
2015,04,10,12,23,7.90
2015,04,10,12,24,7.90
2015,04,10,12,25,7.90
2015,04,10,12,26,7.80
2015,04,10,12,27,7.80
2015,04,10,12,28,7.80
2015,04,10,12,29,7.80
2015,04,10,12,30,7.80
2015,04,10,12,31,7.70
2015,04,10,12,32,7.70
2015,04,10,12,33,7.70
2015,04,10,12,34,7.70
2015,04,10,12,35,7.70
2015,04,10,12,36,7.70
2015,04,10,12,37,7.60
2015,04,10,12,38,7.60
2015,04,10,12,39,7.60
2015,04,10,12,40,7.60
2015,04,10,12,41,7.60
2015,04,10,12,42,7.60
2015,04,10,12,43,7.60
2015,04,10,12,44,7.50
2015,04,10,12,45,7.50
2015,04,10,12,46,7.50
2015,04,10,12,47,7.40
2015,04,10,12,48,7.40
2015,04,10,12,49,7.40
2015,04,10,12,50,7.40
2015,04,10,12,51,7.40
2015,04,10,12,52,7.30
2015,04,10,12,53,7.30
2015,04,10,12,54,7.30
2015,04,10,12,55,7.30
2015,04,10,12,56,7.30
2015,04,10,12,57,7.30
2015,04,10,12,58,7.30
2015,04,10,12,59,7.30
2015,04,10,13,00,7.30
2015,04,10,13,01,7.30
2015,04,10,13,02,7.30
2015,04,10,13,03,7.30
2015,04,10,13,04,7.30
2015,04,10,13,05,7.30
2015,04,10,13,06,7.30
2015,04,10,13,07,7.30
2015,04,10,13,08,7.30
2015,04,10,13,09,7.30
2015,04,10,13,10,7.20
2015,04,10,13,11,7.20
2015,04,10,13,12,7.20
2015,04,10,13,13,7.20
2015,04,10,13,14,7.20
2015,04,10,13,15,7.20
2015,04,10,13,16,7.20
2015,04,10,13,17,7.20
2015,04,10,13,18,7.20
2015,04,10,13,19,7.20
2015,04,10,13,20,7.20
2015,04,10,13,21,7.20
2015,04,10,13,22,7.20
2015,04,10,13,23,7.20
2015,04,10,13,24,7.20
2015,04,10,13,25,7.20
2015,04,10,13,26,7.10
2015,04,10,13,27,7.20
2015,04,10,13,28,7.10
2015,04,10,13,29,7.10
2015,04,10,13,30,7.10
2015,04,10,13,31,7.10
2015,04,10,13,32,7.10
2015,04,10,13,33,7.00
2015,04,10,13,34,7.00
2015,04,10,13,35,7.00
2015,04,10,13,36,7.00
2015,04,10,13,37,7.00
2015,04,10,13,38,7.00
2015,04,10,13,39,7.00
2015,04,10,13,40,7.00
2015,04,10,13,41,6.90
2015,04,10,13,42,6.90
2015,04,10,13,43,6.90
2015,04,10,13,44,6.90
2015,04,10,13,45,6.90
2015,04,10,13,46,6.90
2015,04,10,13,47,6.90
2015,04,10,13,48,6.90
2015,04,10,13,49,6.90
2015,04,10,13,50,6.90
2015,04,10,13,51,6.90
2015,04,10,13,52,6.90
2015,04,10,13,53,6.90
2015,04,10,13,54,6.90
2015,04,10,13,55,6.90
2015,04,10,13,56,6.90
2015,04,10,13,57,6.90
2015,04,10,13,58,6.90
2015,04,10,13,59,6.80
2015,04,10,14,00,6.80
2015,04,10,14,01,6.80
2015,04,10,14,02,6.80
2015,04,10,14,03,6.70
2015,04,10,14,04,6.70
2015,04,10,14,05,6.70
2015,04,10,14,06,6.70
2015,04,10,14,07,6.70
2015,04,10,14,08,6.70
2015,04,10,14,09,6.60
2015,04,10,14,10,6.60
2015,04,10,14,11,6.60
2015,04,10,14,12,6.60
2015,04,10,14,13,6.50
2015,04,10,14,14,6.50
2015,04,10,14,15,6.50
2015,04,10,14,16,6.40
2015,04,10,14,17,6.40
2015,04,10,14,18,6.40
2015,04,10,14,19,6.30
2015,04,10,14,20,6.30
2015,04,10,14,21,6.20
2015,04,10,14,22,6.20
2015,04,10,14,23,6.20
2015,04,10,14,24,6.20
2015,04,10,14,25,6.20
2015,04,10,14,26,6.20
2015,04,10,14,27,6.10
2015,04,10,14,28,6.10
2015,04,10,14,29,6.10
2015,04,10,14,30,6.10
2015,04,10,14,31,6.10
2015,04,10,14,32,6.00
2015,04,10,14,33,6.00
2015,04,10,14,34,5.90
2015,04,10,14,35,5.90
2015,04,10,14,36,5.90
2015,04,10,14,37,5.80
2015,04,10,14,38,5.80
2015,04,10,14,39,5.80
2015,04,10,14,40,5.80
2015,04,10,14,41,5.80
2015,04,10,14,42,5.70
2015,04,10,14,43,5.70
2015,04,10,14,44,5.70
2015,04,10,14,45,5.70
2015,04,10,14,46,5.70
2015,04,10,14,47,5.70
2015,04,10,14,48,5.60
2015,04,10,14,49,5.60
2015,04,10,14,50,5.60
2015,04,10,14,51,5.60
2015,04,10,14,52,5.60
2015,04,10,14,53,5.60
2015,04,10,14,54,5.60
2015,04,10,14,55,5.60
2015,04,10,14,56,5.50
2015,04,10,14,57,5.50
2015,04,10,14,58,5.40
2015,04,10,14,59,5.40
2015,04,10,15,00,5.40
2015,04,10,15,01,5.30
2015,04,10,15,02,5.30
2015,04,10,15,03,5.30
2015,04,10,15,04,5.30
2015,04,10,15,05,5.30
2015,04,10,15,06,5.30
2015,04,10,15,07,5.30
2015,04,10,15,08,5.20
2015,04,10,15,09,5.20
2015,04,10,15,10,5.20
2015,04,10,15,11,5.20
2015,04,10,15,12,5.20
2015,04,10,15,13,5.20
2015,04,10,15,14,5.20
2015,04,10,15,15,5.10
2015,04,10,15,16,5.10
2015,04,10,15,17,5.10
2015,04,10,15,18,5.10
2015,04,10,15,19,5.10
2015,04,10,15,20,5.10
2015,04,10,15,21,5.00
2015,04,10,15,22,5.00
2015,04,10,15,23,5.00
2015,04,10,15,24,5.00
2015,04,10,15,25,4.90
2015,04,10,15,26,4.90
2015,04,10,15,27,4.90
2015,04,10,15,28,4.90
2015,04,10,15,29,4.90
2015,04,10,15,30,4.90
2015,04,10,15,31,4.90
2015,04,10,15,32,4.90
2015,04,10,15,33,4.90
2015,04,10,15,34,4.90
2015,04,10,15,35,4.90
2015,04,10,15,36,4.90
2015,04,10,15,37,4.90
2015,04,10,15,38,4.90
2015,04,10,15,39,4.90
2015,04,10,15,40,5.00
2015,04,10,15,41,5.00
2015,04,10,15,42,5.00
2015,04,10,15,43,5.10
2015,04,10,15,44,5.10
2015,04,10,15,45,5.20
2015,04,10,15,46,5.30
2015,04,10,15,47,5.30
2015,04,10,15,48,5.30
2015,04,10,15,49,5.30
2015,04,10,15,50,5.40
2015,04,10,15,51,5.50
2015,04,10,15,52,5.60
2015,04,10,15,53,5.70
2015,04,10,15,54,5.70
2015,04,10,15,55,5.80
2015,04,10,15,56,5.90
2015,04,10,15,57,6.10
2015,04,10,15,58,6.30
2015,04,10,15,59,6.30
2015,04,10,16,00,6.30
2015,04,10,16,01,6.30
2015,04,10,16,02,6.20
2015,04,10,16,03,6.30
2015,04,10,16,04,6.30
2015,04,10,16,05,6.30
2015,04,10,16,06,6.40
2015,04,10,16,07,6.40
2015,04,10,16,08,6.50
2015,04,10,16,09,6.50
2015,04,10,16,10,6.60
2015,04,10,16,11,6.70
2015,04,10,16,12,6.70
2015,04,10,16,13,6.70
2015,04,10,16,14,6.70
2015,04,10,16,15,6.70
2015,04,10,16,16,6.90
2015,04,10,16,17,6.90
2015,04,10,16,18,7.00
2015,04,10,16,19,7.00
2015,04,10,16,20,7.10
2015,04,10,16,21,7.20
2015,04,10,16,22,7.20
2015,04,10,16,23,7.30
2015,04,10,16,24,7.30
2015,04,10,16,25,7.40
2015,04,10,16,26,7.40
2015,04,10,16,27,7.40
2015,04,10,16,28,7.40
2015,04,10,16,29,7.30
2015,04,10,16,30,7.30
2015,04,10,16,31,7.30
2015,04,10,16,32,7.40
2015,04,10,16,33,7.50
2015,04,10,16,34,7.50
2015,04,10,16,35,7.50
2015,04,10,16,36,7.50
2015,04,10,16,37,7.60
2015,04,10,16,38,7.60
2015,04,10,16,39,7.60
2015,04,10,16,40,7.70
2015,04,10,16,41,7.70
2015,04,10,16,42,7.80
2015,04,10,16,43,7.80
2015,04,10,16,44,7.70
2015,04,10,16,45,7.80
2015,04,10,16,46,7.80
2015,04,10,16,47,7.80
2015,04,10,16,48,7.80
2015,04,10,16,49,7.80
2015,04,10,16,50,7.70
2015,04,10,16,51,7.70
2015,04,10,16,52,7.70
2015,04,10,16,53,7.70
2015,04,10,16,54,7.70
2015,04,10,16,55,7.70
2015,04,10,16,56,7.80
2015,04,10,16,57,7.80
2015,04,10,16,58,7.80
2015,04,10,16,59,7.70
2015,04,10,17,00,7.70
2015,04,10,17,01,7.70
2015,04,10,17,02,7.70
2015,04,10,17,03,7.70
2015,04,10,17,04,7.60
2015,04,10,17,05,7.60
2015,04,10,17,06,7.70
2015,04,10,17,07,7.70
2015,04,10,17,08,7.60
2015,04,10,17,09,7.60
2015,04,10,17,10,7.50
2015,04,10,17,11,7.50
2015,04,10,17,12,7.40
2015,04,10,17,13,7.30
2015,04,10,17,14,7.30
2015,04,10,17,15,7.30
2015,04,10,17,16,7.20
2015,04,10,17,17,7.20
2015,04,10,17,18,7.20
2015,04,10,17,19,7.20
2015,04,10,17,20,7.20
2015,04,10,17,21,7.20
2015,04,10,17,22,7.10
2015,04,10,17,23,7.10
2015,04,10,17,24,7.10
2015,04,10,17,25,7.10
2015,04,10,17,26,7.10
2015,04,10,17,27,7.10
2015,04,10,17,28,7.10
2015,04,10,17,29,7.10
2015,04,10,17,30,7.00
2015,04,10,17,31,7.00
2015,04,10,17,32,7.10
2015,04,10,17,33,7.00
2015,04,10,17,34,7.00
2015,04,10,17,35,6.90
2015,04,10,17,36,6.90
2015,04,10,17,37,6.90
2015,04,10,17,38,6.90
2015,04,10,17,39,6.90
2015,04,10,17,40,6.80
2015,04,10,17,41,6.80
2015,04,10,17,42,6.80
2015,04,10,17,43,6.80
2015,04,10,17,44,6.80
2015,04,10,17,45,6.80
2015,04,10,17,46,6.80
2015,04,10,17,47,6.80
2015,04,10,17,48,6.80
2015,04,10,17,49,6.70
2015,04,10,17,50,6.80
2015,04,10,17,51,6.80
2015,04,10,17,52,6.80
2015,04,10,17,53,6.80
2015,04,10,17,54,6.80
2015,04,10,17,55,6.80
2015,04,10,17,56,6.80
2015,04,10,17,57,6.80
2015,04,10,17,58,6.80
2015,04,10,17,59,6.80
2015,04,10,18,00,6.80
2015,04,10,18,01,6.80
2015,04,10,18,02,6.80
2015,04,10,18,03,6.70
2015,04,10,18,04,6.70
2015,04,10,18,05,6.70
2015,04,10,18,06,6.70
2015,04,10,18,07,6.70
2015,04,10,18,08,6.70